This is the latest recevied weather packets stored in our database for station/object N8DMH-13. If no packets are shown the sender has not sent any weather packets the latest 10 day(s).
| Time | Temp. | Humidity | Pressure | Rain* | Wind** | Luminosity | Snow |
|---|---|---|---|---|---|---|---|
| 1787928233 | 20° C | 70% | 1021.4 hPa | 0 mm | - | - | - |
| 1787927903 | 20° C | 70% | 1021.5 hPa | 0 mm | - | - | - |
| 1787927574 | 20° C | 69% | 1021.4 hPa | 0 mm | - | - | - |
| 1787927275 | 20.56° C | 69% | 1021.4 hPa | 0 mm | - | - | - |
| 1787926943 | 20.56° C | 67% | 1021.3 hPa | 0 mm | - | - | - |
| 1787926613 | 20.56° C | 70% | 1021.3 hPa | 0 mm | - | - | - |
| 1787926313 | 20° C | 70% | 1021.3 hPa | 0 mm | - | - | - |
| 1787926013 | 20° C | 71% | 1021.4 hPa | 0 mm | - | - | - |
| 1787925682 | 19.44° C | 72% | 1021.3 hPa | 0 mm | - | - | - |
| 1787925382 | 18.89° C | 73% | 1021.3 hPa | 0 mm | - | - | - |
| 1787925052 | 18.33° C | 74% | 1021.2 hPa | 0 mm | - | - | - |
| 1787924722 | 17.78° C | 75% | 1021.3 hPa | 0 mm | - | - | - |
| 1787924423 | 17.78° C | 76% | 1021.4 hPa | 0 mm | - | - | - |
| 1787924094 | 17.78° C | 76% | 1021.4 hPa | 0 mm | - | - | - |
| 1787923878 | 17.22° C | 77% | 1021.4 hPa | 0 mm | - | - | - |
| 1787923793 | 17.22° C | 77% | 1021.4 hPa | 0 mm | - | - | - |
| 1787923492 | 17.22° C | 77% | 1021.3 hPa | 0 mm | - | - | - |
| 1787923162 | 16.67° C | 78% | 1021.2 hPa | 0 mm | - | - | - |
| 1787922861 | 16.67° C | 79% | 1021.3 hPa | 0 mm | - | - | - |
| 1787922561 | 16.11° C | 80% | 1021.3 hPa | 0 mm | - | - | - |
| 1787922231 | 15.56° C | 81% | 1021.4 hPa | 0 mm | - | - | - |
| 1787921933 | 15.56° C | 82% | 1021.4 hPa | 0 mm | - | - | - |
| 1787921602 | 15° C | 83% | 1021.2 hPa | 0 mm | - | - | - |
| 1787921271 | 15° C | 84% | 1021.2 hPa | 0 mm | - | - | - |
| 1787920971 | 14.44° C | 84% | 1021.2 hPa | 0 mm | - | - | - |
* Rain latest hour (hover to see other rain measurements)
** Current wind speed in m/s (hover to see current wind gust speed)